Location: *
(32.7344°N, 101.9581°W)
Time: 11:38:34
(UTC+00:00)

Daily predictions for brighter satellites

Satellite Brightness Start Highest point End
(mag) Time Altitude Azimuth Time Altitude Azimuth Time Altitude Azimuth
Cosmos 1315 Rocket 3.6 12:00:22 10° S 12:04:08 50° E 12:07:56 10° NNE
Haruka 3.8 12:04:47 38° W 12:06:55 70° S 12:23:44 10° ESE
H-2A R/B 3.9 12:08:45 10° SSW 12:10:05 17° SSW 12:10:05 17° SSW
ATLAS 5 CENTAUR R/B 2.1 12:12:26 41° NNW 12:13:32 85° ENE 12:21:34 10° SSE
Nadezhda 4 Rocket 4.0 12:08:58 10° NNW 12:14:53 53° W 12:20:48 10° SSW
ERBS 3.9 12:16:23 22° N 12:16:23 22° N 12:17:55 10° NNE
Cosmos 1606 Rocket 4.1 12:10:47 10° S 12:14:59 57° E 12:19:14 10° NNE
YAOGAN 6 3.7 12:11:59 10° NNE 12:15:33 45° E 12:19:04 10° S
Cosmos 1346 Rocket 3.7 12:12:01 10° N 12:15:53 48° E 12:19:44 10° SSE
ATLAS 3B R/B 4.3 12:11:20 10° S 12:17:04 33° ESE 12:22:50 10° NE
Cosmos 1340 2.8 12:18:17 47° W 12:18:17 47° W 12:21:49 10° S
BREEZE-M (TANK) 4.1 12:18:06 11° NNE 12:18:16 11° NNE 12:18:50 10° NE
SKYMED 3 4.4 12:14:56 10° S 12:19:15 76° W 12:23:36 10° NNW
USA 238 DEB 4.1 12:19:47 28° W 12:22:10 36° NW 12:28:19 10° NNE
USA 238 4.1 12:19:49 27° W 12:22:16 36° NW 12:28:26 10° NNE
Cosmos 372 Rocket 4.4 12:21:05 28° NW 12:23:11 41° WSW 12:28:00 10° S
Cosmos 1626 Rocket 4.1 12:24:36 29° NW 12:25:59 37° W 12:30:03 10° SSW
Cosmos 1634 Rocket 3.9 12:21:00 10° SSW 12:27:07 70° W 12:33:17 10° N
Meteor 1-11 4.2 12:24:30 10° N 12:30:06 89° E 12:35:43 10° S
Cosmos 2150 Rocket 4.0 12:24:57 10° NNW 12:30:21 79° WSW 12:35:46 10° S
Cosmos 2297 3.7 12:26:56 10° NNW 12:32:42 90° WNW 12:38:26 10° SSE
Lacrosse 5 rocket 2.6 12:33:36 19° SW 12:33:36 19° SW 12:36:04 10° SSW
deb Chang Zheng 4 4.1 12:33:42 10° N 12:37:31 33° WNW 12:41:18 10° SW
Aurora 2 Rocket 4.3 12:35:16 13° SW 12:37:48 23° S 12:41:48 10° SE
Cosmos 1689 Rocket 2.0 12:37:37 10° SSE 12:40:30 78° ENE 12:43:23 10° N
Cosmos 1328 4.3 12:39:21 13° NNW 12:42:23 34° W 12:45:56 10° SSW
SKYMED 2 4.1 12:39:19 10° SSW 12:43:19 37° W 12:47:21 10° NNW
Cosmos 2098 Rocket 2.9 12:40:43 10° N 12:45:40 80° W 12:49:31 10° S
Cosmos 773 Rocket 4.5 12:41:05 10° S 12:46:15 65° ESE 12:51:25 10° NNE
OAO 3 Copernicus 4.3 12:42:50 20° WNW 12:46:23 83° NNE 12:51:27 10° E
TIMED 4.4 12:42:31 10° SSW 12:46:51 71° WNW 12:51:13 10° NNE
CZ-2C R/B 1.5 12:45:24 20° W 12:48:18 65° SSW 12:52:22 10° ESE
PSLV R/B 3.8 12:44:24 10° N 12:48:27 76° WNW 12:52:32 10° SSW
Cosmos 2026 Rocket 4.1 12:44:09 10° NNW 12:50:25 62° W 12:56:40 10° S
Cosmos 1603 3.6 12:44:54 10° SSW 12:50:30 86° WNW 12:56:09 10° NNE
BREEZE-M DEB (TANK) 3.5 12:45:41 10° WSW 12:51:14 33° NW 12:53:38 10° NNE
ERS-2 2.5 12:48:24 10° S 12:51:52 42° W 12:55:20 10° NNW
Cosmos 2084 Rocket 3.8 12:48:31 13° NW 12:52:18 50° WSW 12:56:43 10° SSE
Cosmos 1758 Rocket 3.7 12:48:18 10° NNW 12:52:37 49° W 12:56:52 10° SSW
Envisat 3.0 12:48:31 10° N 12:53:31 59° WNW 12:58:28 10° SSW
Cosmos 1125 Rocket 3.6 12:50:35 10° NNW 12:55:50 61° WSW 13:01:03 10° S
Cosmos 1726 Rocket 3.6 12:54:31 10° SSW 12:58:42 51° W 13:02:55 10° N
DMSP B5D1-3 4.5 12:54:41 10° S 12:59:46 83° WSW 13:04:53 10° NNW
Atlas Centaur 2 3.6 12:56:07 12° W 13:02:43 47° SSW 13:10:39 10° SE
Cosmos 2058 Rocket 3.0 12:59:46 10° S 13:04:09 79° W 13:08:35 10° N
In-Cosmos 22 Rocket 4.4 12:59:11 10° N 13:04:34 71° E 13:09:50 10° SSE
CZ-2C R/B 3.2 13:00:35 10° SSE 13:05:43 61° ENE 13:11:00 10° N
CZ-4B DEB 4.2 13:03:31 10° N 13:09:01 65° WNW 13:14:29 10° SSW
Cosmos 1943 Rocket 2.2 13:04:01 10° NNW 13:09:40 69° WSW 13:15:16 10° S
Meteor 2-10 Rocket 3.8 13:04:29 10° S 13:10:18 83° W 13:16:06 10° N
SAR-Lupe-4 4.4 13:07:25 10° SSW 13:10:37 31° W 13:13:51 10° NW
Cosmos 1455 2.5 13:07:56 10° S 13:11:37 71° E 13:15:21 10° N
H-2A R/B 4.2 13:10:35 10° NNW 13:13:00 16° WNW 13:15:25 10° WSW
Cosmos 1825 4.5 13:11:12 10° NNE 13:14:27 27° E 13:17:43 10° SE
Abrixas rocket 3.3 13:14:47 10° SSW 13:17:13 36° SE 13:19:40 10° ENE
H-2A R/B 2.7 13:14:58 10° N 13:19:26 64° WNW 13:23:50 10° SSW
MOS 1-B 4.4 13:14:16 10° N 13:19:57 63° WNW 13:25:38 10° SSW
